| time (UTC) | temp F | wind direction | speed MPH | gust MPH | rain 1hr in | rain 24hr in | rain mn in | humidity % | barometer mb |
| 20260902114305 | 72 | 61 | 3.0 | 5.0 | 0.00 | 0.00 | 0.00 | 98 | 1019.1 |
| 20260902113804 | 72 | 65 | 1.0 | 2.0 | 0.00 | 0.00 | 0.00 | 98 | 1019.0 |
| 20260902112805 | 71 | 65 | 1.0 | 3.0 | 0.00 | 0.00 | 0.00 | 98 | 1018.9 |
| 20260902111805 | 70 | 64 | 0.0 | 2.0 | 0.00 | 0.00 | 0.00 | 98 | 1018.9 |
| 20260902110303 | 70 | 64 | 0.0 | 0.0 | 0.00 | 0.00 | 0.00 | 97 | 1018.8 |
| 20260902105805 | 70 | 64 | 0.0 | 0.0 | 0.00 | 0.00 | 0.00 | 98 | 1018.9 |
| 20260902103303 | 70 | 64 | 0.0 | 0.0 | 0.00 | 0.00 | 0.00 | 97 | 1018.8 |
| 20260902101304 | 70 | 64 | 0.0 | 0.0 | 0.00 | 0.00 | 0.00 | 97 | 1018.6 |
| 20260902100304 | 70 | 64 | 0.0 | 0.0 | 0.00 | 0.00 | 0.00 | 97 | 1018.5 |
| 20260902095806 | 70 | 64 | 0.0 | 1.0 | 0.00 | 0.00 | 0.00 | 97 | 1018.5 |
| 20260902095307 | 70 | 64 | 0.0 | 1.0 | 0.00 | 0.00 | 0.00 | 97 | 1018.5 |
| 20260902093807 | 70 | 64 | 0.0 | 0.0 | 0.00 | 0.00 | 0.00 | 97 | 1018.5 |
| 20260902092805 | 70 | 64 | 0.0 | 1.0 | 0.00 | 0.00 | 0.00 | 97 | 1018.4 |
| 20260902092305 | 70 | 64 | 0.0 | 1.0 | 0.00 | 0.00 | 0.00 | 97 | 1018.6 |
| 20260902085805 | 71 | 64 | 0.0 | 0.0 | 0.00 | 0.00 | 0.00 | 97 | 1018.5 |
| 20260902084805 | 71 | 64 | 0.0 | 0.0 | 0.00 | 0.00 | 0.00 | 97 | 1018.4 |
| 20260902084305 | 71 | 64 | 0.0 | 0.0 | 0.00 | 0.00 | 0.00 | 97 | 1018.3 |
| 20260902083805 | 71 | 64 | 0.0 | 0.0 | 0.00 | 0.00 | 0.00 | 96 | 1018.4 |
| 20260902083305 | 71 | 64 | 0.0 | 0.0 | 0.00 | 0.00 | 0.00 | 97 | 1018.4 |
| 20260902081805 | 71 | 64 | 0.0 | 0.0 | 0.00 | 0.00 | 0.00 | 97 | 1018.5 |
| 20260902080805 | 71 | 64 | 0.0 | 0.0 | 0.00 | 0.00 | 0.00 | 96 | 1018.4 |
| 20260902080306 | 71 | 64 | 0.0 | 0.0 | 0.00 | 0.00 | 0.00 | 96 | 1018.4 |
| 20260902074805 | 71 | 63 | 0.0 | 0.0 | 0.00 | 0.00 | 0.00 | 96 | 1018.3 |
| 20260902073305 | 72 | 62 | 0.0 | 0.0 | 0.00 | 0.00 | 0.00 | 96 | 1018.4 |
| 20260902072805 | 72 | 62 | 0.0 | 1.0 | 0.00 | 0.00 | 0.00 | 96 | 1018.4 |
| 20260902072309 | 72 | 62 | 0.0 | 2.0 | 0.00 | 0.00 | 0.00 | 96 | 1018.5 |
| 20260902071305 | 72 | 64 | 0.0 | 1.0 | 0.00 | 0.00 | 0.00 | 96 | 1018.3 |
| 20260902070305 | 72 | 64 | 0.0 | 1.0 | 0.00 | 0.00 | 0.00 | 95 | 1018.1 |
| 20260902063804 | 73 | 64 | 0.0 | 1.0 | 0.00 | 0.00 | 0.00 | 95 | 1017.7 |
| 20260902063307 | 73 | 64 | 0.0 | 1.0 | 0.00 | 0.00 | 0.00 | 94 | 1017.5 |
| 20260902062805 | 73 | 64 | 0.0 | 1.0 | 0.00 | 0.00 | 0.00 | 95 | 1017.6 |
| 20260902060305 | 74 | 70 | 0.0 | 1.0 | 0.00 | 0.00 | 0.00 | 93 | 1017.1 |
| 20260902055804 | 74 | 70 | 0.0 | 1.0 | 0.00 | 0.00 | 0.00 | 92 | 1017.1 |
| 20260902054805 | 74 | 70 | 0.0 | 1.0 | 0.00 | 0.00 | 0.00 | 91 | 1016.9 |
| 20260902052805 | 75 | 69 | 0.0 | 9.0 | 0.00 | 0.00 | 0.00 | 88 | 1017.2 |
| 20260902051804 | 76 | 36 | 5.0 | 9.0 | 0.00 | 0.00 | 0.00 | 85 | 1017.3 |
| 20260902051305 | 77 | 43 | 2.0 | 5.0 | 0.00 | 0.00 | 0.00 | 85 | 1017.5 |
| 20260902050805 | 77 | 70 | 0.0 | 3.0 | 0.00 | 0.00 | 0.00 | 84 | 1017.7 |
| 20260902050306 | 77 | 339 | 0.0 | 1.0 | 0.00 | 0.00 | 0.00 | 84 | 1017.8 |
| 20260902045806 | 77 | 342 | 0.0 | 1.0 | 0.00 | 0.00 | 0.00 | 84 | 1017.9 |
| 20260902044804 | 78 | 86 | 0.0 | 5.0 | 0.00 | 0.00 | 0.00 | 84 | 1017.9 |
| 20260902042805 | 78 | 40 | 1.0 | 5.0 | 0.00 | 0.00 | 0.00 | 92 | 1017.7 |
| 20260902040812 | 78 | 44 | 0.0 | 1.0 | 0.00 | 0.00 | 0.00 | 90 | 1017.2 |
| 20260902035805 | 79 | 45 | 0.0 | 1.0 | 0.00 | 0.00 | 0.00 | 89 | 1017.1 |
| 20260902035306 | 79 | 45 | 0.0 | 1.0 | 0.00 | 0.00 | 0.00 | 89 | 1017.1 |
| 20260902034805 | 79 | 45 | 0.0 | 1.0 | 0.00 | 0.00 | 0.00 | 88 | 1017.0 |
| 20260902034304 | 79 | 45 | 0.0 | 1.0 | 0.00 | 0.00 | 0.00 | 88 | 1016.8 |
| 20260902031804 | 80 | 33 | 1.0 | 5.0 | 0.00 | 0.00 | 0.00 | 87 | 1016.8 |
| 20260902031305 | 80 | 47 | 1.0 | 3.0 | 0.00 | 0.00 | 0.00 | 87 | 1016.6 |
| 20260902030805 | 80 | 11 | 1.0 | 7.0 | 0.00 | 0.00 | 0.00 | 87 | 1016.5 |
| 20260902023305 | 82 | 61 | 3.0 | 9.0 | 0.00 | 0.00 | 0.00 | 83 | 1015.8 |
| 20260902022806 | 83 | 41 | 3.0 | 9.0 | 0.00 | 0.00 | 0.00 | 82 | 1015.9 |
| 20260902022306 | 83 | 88 | 4.0 | 8.0 | 0.00 | 0.00 | 0.00 | 82 | 1015.7 |
| 20260902021805 | 82 | 78 | 2.0 | 8.0 | 0.00 | 0.00 | 0.00 | 82 | 1015.7 |
| 20260902021305 | 83 | 238 | 1.0 | 2.0 | 0.00 | 0.00 | 0.00 | 81 | 1015.7 |
| 20260902020804 | 83 | 238 | 0.0 | 2.0 | 0.00 | 0.00 | 0.00 | 80 | 1015.7 |
| 20260902020305 | 83 | 234 | 0.0 | 3.0 | 0.00 | 0.00 | 0.00 | 80 | 1015.6 |
| 20260902015306 | 84 | 269 | 1.0 | 6.0 | 0.00 | 0.00 | 0.00 | 78 | 1015.4 |
| 20260902014805 | 84 | 310 | 1.0 | 8.0 | 0.00 | 0.00 | 0.00 | 78 | 1015.4 |
| 20260902013306 | 83 | 333 | 2.0 | 5.0 | 0.00 | 0.00 | 0.00 | 81 | 1015.2 |
| 20260902010305 | 84 | 266 | 1.0 | 6.0 | 0.00 | 0.00 | 0.00 | 81 | 1014.7 |
| 20260902005805 | 83 | 313 | 0.0 | 6.0 | 0.00 | 0.00 | 0.00 | 80 | 1014.8 |
| 20260902005306 | 82 | 285 | 1.0 | 3.0 | 0.00 | 0.00 | 0.00 | 87 | 1014.9 |
| 20260902004806 | 82 | 223 | 0.0 | 3.0 | 0.00 | 0.00 | 0.00 | 85 | 1014.9 |
| 20260902003804 | 82 | 221 | 0.0 | 2.0 | 0.00 | 0.00 | 0.00 | 86 | 1014.8 |
| 20260902003306 | 81 | 221 | 0.0 | 0.0 | 0.00 | 0.00 | 0.00 | 87 | 1014.8 |
| 20260902002804 | 81 | 221 | 0.0 | 0.0 | 0.00 | 0.00 | 0.00 | 88 | 1014.7 |
| 20260902001805 | 82 | 221 | 0.0 | 0.0 | 0.00 | 0.00 | 0.00 | 88 | 1014.4 |
| 20260902000805 | 84 | 221 | 0.0 | 3.0 | 0.00 | 0.00 | 0.00 | 84 | 1013.6 |
| 20260901231305 | 88 | 207 | 1.0 | 3.0 | 0.00 | 0.00 | 0.00 | 71 | 1014.3 |
| 20260901225306 | 90 | 202 | 1.0 | 3.0 | 0.00 | 0.00 | 0.00 | 66 | 1014.4 |
| 20260901224305 | 90 | 225 | 1.0 | 8.0 | 0.00 | 0.00 | 0.00 | 66 | 1014.3 |
| 20260901223805 | 91 | 230 | 3.0 | 8.0 | 0.00 | 0.00 | 0.00 | 65 | 1014.4 |
| 20260901222306 | 91 | 200 | 4.0 | 9.0 | 0.00 | 0.00 | 0.00 | 65 | 1014.3 |
| 20260901221804 | 91 | 192 | 2.0 | 6.0 | 0.00 | 0.00 | 0.00 | 67 | 1014.2 |
| 20260901221304 | 91 | 228 | 3.0 | 5.0 | 0.00 | 0.00 | 0.00 | 64 | 1014.2 |
| 20260901215805 | 92 | 212 | 1.0 | 6.0 | 0.00 | 0.00 | 0.00 | 64 | 1014.4 |
| 20260901213805 | 92 | 227 | 2.0 | 9.0 | 0.00 | 0.00 | 0.00 | 63 | 1014.4 |
| 20260901212306 | 93 | 211 | 2.0 | 8.0 | 0.00 | 0.00 | 0.00 | 64 | 1014.6 |
| 20260901211305 | 93 | 244 | 5.0 | 12.0 | 0.00 | 0.00 | 0.00 | 62 | 1014.7 |
| 20260901210806 | 93 | 252 | 3.0 | 10.0 | 0.00 | 0.00 | 0.00 | 62 | 1014.7 |
| 20260901210305 | 92 | 210 | 2.0 | 8.0 | 0.00 | 0.00 | 0.00 | 66 | 1014.9 |
| 20260901205306 | 92 | 257 | 2.0 | 3.0 | 0.00 | 0.00 | 0.00 | 66 | 1014.8 |
| 20260901204805 | 91 | 332 | 2.0 | 3.0 | 0.00 | 0.00 | 0.00 | 70 | 1014.9 |
| 20260901202805 | 90 | 292 | 1.0 | 5.0 | 0.00 | 0.00 | 0.00 | 67 | 1015.0 |
| 20260901201305 | 91 | 285 | 3.0 | 9.0 | 0.00 | 0.00 | 0.00 | 66 | 1015.2 |
| 20260901200805 | 92 | 294 | 2.0 | 9.0 | 0.00 | 0.00 | 0.00 | 64 | 1015.2 |
| 20260901195306 | 93 | 256 | 2.0 | 6.0 | 0.00 | 0.00 | 0.00 | 64 | 1015.3 |
| 20260901194806 | 93 | 289 | 1.0 | 6.0 | 0.00 | 0.00 | 0.00 | 63 | 1015.3 |
| 20260901193804 | 93 | 226 | 2.0 | 8.0 | 0.00 | 0.00 | 0.00 | 64 | 1015.5 |
| 20260901191805 | 92 | 289 | 3.0 | 9.0 | 0.00 | 0.00 | 0.00 | 65 | 1015.6 |
| 20260901191304 | 92 | 227 | 3.0 | 12.0 | 0.00 | 0.00 | 0.00 | 64 | 1015.6 |
| 20260901190804 | 92 | 266 | 5.0 | 12.0 | 0.00 | 0.00 | 0.00 | 66 | 1015.7 |
| 20260901190305 | 91 | 318 | 1.0 | 8.0 | 0.00 | 0.00 | 0.00 | 66 | 1015.8 |
| 20260901185804 | 93 | 339 | 2.0 | 8.0 | 0.00 | 0.00 | 0.00 | 65 | 1015.8 |
| 20260901185306 | 92 | 319 | 3.0 | 7.0 | 0.00 | 0.00 | 0.00 | 64 | 1015.8 |
| 20260901184804 | 93 | 221 | 2.0 | 7.0 | 0.00 | 0.00 | 0.00 | 63 | 1015.9 |
| 20260901182804 | 92 | 269 | 3.0 | 7.0 | 0.00 | 0.00 | 0.00 | 65 | 1015.8 |
| 20260901181305 | 91 | 319 | 2.0 | 8.0 | 0.00 | 0.00 | 0.00 | 67 | 1015.9 |
| 20260901180305 | 90 | 284 | 3.0 | 9.0 | 0.00 | 0.00 | 0.00 | 67 | 1016.0 |
| 20260901173304 | 88 | 284 | 3.0 | 9.0 | 0.00 | 0.00 | 0.00 | 73 | 1016.1 |
| 20260901172804 | 88 | 296 | 3.0 | 6.0 | 0.00 | 0.00 | 0.00 | 74 | 1016.1 |
| 20260901171806 | 87 | 258 | 2.0 | 8.0 | 0.00 | 0.00 | 0.00 | 74 | 1016.1 |
| 20260901170805 | 87 | 279 | 0.0 | 3.0 | 0.00 | 0.00 | 0.00 | 74 | 1016.1 |
| 20260901170305 | 87 | 261 | 2.0 | 3.0 | 0.00 | 0.00 | 0.00 | 74 | 1016.0 |
| 20260901165806 | 87 | 219 | 1.0 | 3.0 | 0.00 | 0.00 | 0.00 | 76 | 1016.1 |
| 20260901164304 | 86 | 291 | 1.0 | 3.0 | 0.00 | 0.00 | 0.00 | 76 | 1016.5 |
| 20260901163804 | 85 | 293 | 2.0 | 3.0 | 0.00 | 0.00 | 0.00 | 77 | 1016.6 |
| 20260901163304 | 85 | 322 | 1.0 | 3.0 | 0.00 | 0.00 | 0.00 | 79 | 1016.7 |
| 20260901162804 | 85 | 330 | 2.0 | 3.0 | 0.00 | 0.00 | 0.00 | 79 | 1016.8 |
| 20260901162306 | 86 | 330 | 2.0 | 3.0 | 0.00 | 0.00 | 0.00 | 75 | 1016.7 |
| 20260901161804 | 87 | 260 | 2.0 | 3.0 | 0.00 | 0.00 | 0.00 | 73 | 1016.7 |
| 20260901160807 | 88 | 262 | 1.0 | 7.0 | 0.00 | 0.00 | 0.00 | 72 | 1016.7 |
| 20260901160305 | 88 | 248 | 3.0 | 7.0 | 0.00 | 0.00 | 0.00 | 70 | 1016.7 |
| 20260901155804 | 89 | 312 | 2.0 | 5.0 | 0.00 | 0.00 | 0.00 | 71 | 1016.7 |
| 20260901155306 | 89 | 260 | 2.0 | 7.0 | 0.00 | 0.00 | 0.00 | 71 | 1016.8 |
| 20260901154806 | 89 | 305 | 2.0 | 8.0 | 0.00 | 0.00 | 0.00 | 71 | 1016.8 |
| 20260901153306 | 87 | 246 | 3.0 | 8.0 | 0.00 | 0.00 | 0.00 | 71 | 1017.0 |
| 20260901152806 | 87 | 261 | 3.0 | 8.0 | 0.00 | 0.00 | 0.00 | 72 | 1017.1 |
| 20260901152306 | 86 | 274 | 4.0 | 9.0 | 0.00 | 0.00 | 0.00 | 71 | 1017.2 |
| 20260901150304 | 87 | 281 | 5.0 | 10.0 | 0.00 | 0.00 | 0.00 | 72 | 1017.3 |
| 20260901145306 | 86 | 296 | 3.0 | 9.0 | 0.00 | 0.00 | 0.00 | 73 | 1017.2 |
| 20260901144304 | 85 | 295 | 2.0 | 9.0 | 0.00 | 0.00 | 0.00 | 77 | 1017.2 |
| 20260901142306 | 84 | 264 | 6.0 | 12.0 | 0.00 | 0.00 | 0.00 | 78 | 1017.4 |
| 20260901141304 | 82 | 291 | 5.0 | 10.0 | 0.00 | 0.00 | 0.00 | 82 | 1017.3 |
| 20260901140304 | 82 | 306 | 2.0 | 6.0 | 0.00 | 0.00 | 0.00 | 83 | 1017.3 |
| 20260901135305 | 81 | 285 | 1.0 | 3.0 | 0.00 | 0.00 | 0.00 | 86 | 1017.5 |
| 20260901134304 | 81 | 284 | 1.0 | 3.0 | 0.00 | 0.00 | 0.00 | 85 | 1017.3 |
| 20260901133804 | 81 | 275 | 0.0 | 6.0 | 0.00 | 0.00 | 0.00 | 85 | 1017.2 |
| 20260901132307 | 81 | 290 | 1.0 | 3.0 | 0.00 | 0.00 | 0.00 | 83 | 1017.1 |
| 20260901130804 | 80 | 263 | 2.0 | 6.0 | 0.00 | 0.00 | 0.00 | 85 | 1017.4 |
| 20260901130305 | 80 | 259 | 1.0 | 8.0 | 0.00 | 0.00 | 0.00 | 85 | 1017.5 |
| 20260901122805 | 77 | 274 | 1.0 | 5.0 | 0.00 | 0.00 | 0.00 | 91 | 1018.0 |
| 20260901122307 | 77 | 300 | 1.0 | 3.0 | 0.00 | 0.00 | 0.00 | 92 | 1017.9 |
| 20260901120804 | 76 | 275 | 0.0 | 3.0 | 0.00 | 0.00 | 0.00 | 95 | 1017.8 |
| 20260901115805 | 76 | 270 | 0.0 | 3.0 | 0.00 | 0.00 | 0.00 | 96 | 1017.6 |